Location: Joplin, MO
(37.0842°N, 94.5133°W)
Time: 10:00:03
(UTC+02:00)

Vanguard 3 - Pass Details

Date: 02 April 2023
Orbit: 507 x 3246 km, 33.4° (Epoch: 01 June)

Event Time Altitude Azimuth Distance (km) Brightness Sun altitude
Rises 13:24:31 0° 279° (W) 6,866 - -8.3°
Exits shadow 13:26:31 - 278° (W) 6,477 11.1 -7.9°
Reaches altitude 10° 13:28:53 10° 277° (W) 6,019 11.0 -7.5°
Maximum altitude 13:48:28 67° 201° (SSW) 3,302 10.1 -3.6°
Drops below altitude 10° 14:04:32 10° 123° (ESE) 5,067 12.1 -0.4°
Sets 14:07:52 0° 120° (ESE) 5,777 12.5 0.2°
